Total_Precipitation_Accumulation
0.00 0.00 0.04 0.19 0.27 0.20 0.01 0.00 0.00 0.00 0.00 0.00 0.00 0.00 0.00 0.01 0.00 0.00 0.07 0.14 0.01 0.00 0.03 0.28 0.26 0.27 0.29 0.16 0.07 0.09 0.08 0.09 0.10 0.09 0.08 0.04 0.03 0.10 0.17 0.21 0.23 0.13 0.09 0.10 0.12 0.13 0.07 0.05 0.05
0.00 0.09 0.08 0.65 0.32 0.11 0.01 0.00 0.00 0.00 0.00 0.00 0.00 0.00 0.01 0.02 0.00 0.00 0.02 0.01 0.02 0.04 0.03 0.10 0.09 0.15 0.15 0.08 0.08 0.06 0.10 0.09 0.09 0.11 0.08 0.12 0.21 0.25 0.16 0.09 0.07 0.10 0.06 0.05 0.04 0.08 0.08 0.07 0.12
0.00 0.06 0.12 0.42 0.14 0.07 0.01 0.00 0.00 0.00 0.00 0.00 0.08 0.02 0.00 0.02 0.00 0.00 0.03 0.04 0.06 0.07 0.00 0.01 0.08 0.11 0.08 0.10 0.12 0.13 0.14 0.10 0.13 0.13 0.13 0.19 0.25 0.24 0.11 0.09 0.13 0.13 0.17 0.17 0.23 0.25 0.32 0.20 0.24
0.00 0.04 0.08 0.16 0.16 0.02 0.01 0.00 0.00 0.00 0.00 0.00 0.01 0.05 0.00 0.00 0.00 0.01 0.07 0.09 0.04 0.01 0.00 0.03 0.12 0.17 0.15 0.09 0.09 0.10 0.16 0.11 0.12 0.09 0.14 0.17 0.16 0.08 0.19 0.15 0.15 0.14 0.11 0.11 0.17 0.20 0.17 0.13 0.08
0.00 0.09 0.66 0.39 0.11 0.00 0.01 0.03 0.03 0.01 0.00 0.01 0.03 0.10 0.01 0.01 0.00 0.00 0.03 0.03 0.00 0.00 0.01 0.03 0.21 0.13 0.10 0.06 0.12 0.11 0.13 0.11 0.12 0.16 0.14 0.23 0.23 0.18 0.24 0.19 0.20 0.18 0.09 0.06 0.09 0.06 0.07 0.06 0.06
0.07 0.33 0.66 0.34 0.01 0.00 0.00 0.01 0.00 0.00 0.01 0.01 0.00 0.00 0.01 0.00 0.02 0.01 0.04 0.07 0.01 0.01 0.01 0.01 0.15 0.13 0.13 0.07 0.09 0.10 0.09 0.11 0.05 0.13 0.18 0.23 0.51 0.20 0.26 0.24 0.13 0.03 0.01 0.03 0.03 0.05 0.02 0.07 0.13
0.34 0.65 0.68 0.12 0.00 0.00 0.00 0.00 0.00 0.00 0.00 0.01 0.00 0.00 0.01 0.02 0.04 0.02 0.04 0.05 0.01 0.01 0.01 0.02 0.05 0.08 0.12 0.09 0.12 0.08 0.07 0.11 0.05 0.10 0.14 0.17 0.22 0.22 0.19 0.14 0.02 0.00 0.01 0.00 0.00 0.00 0.01 0.03 0.03
0.34 1.22 0.91 0.31 0.01 0.01 0.01 0.03 0.00 0.00 0.01 0.00 0.00 0.00 0.00 0.01 0.13 0.07 0.02 0.03 0.05 0.07 0.05 0.02 0.02 0.08 0.06 0.07 0.13 0.04 0.05 0.11 0.05 0.08 0.19 0.22 0.10 0.15 0.22 0.16 0.04 0.00 0.00 0.00 0.00 0.00 0.02 0.02 0.00
0.40 1.80 0.84 0.88 0.01 0.01 0.00 0.03 0.00 0.01 0.00 0.00 0.00 0.00 0.00 0.00 0.04 0.02 0.01 0.01 0.10 0.03 0.02 0.01 0.00 0.02 0.07 0.09 0.16 0.20 0.11 0.18 0.17 0.17 0.37 0.60 0.10 0.15 0.30 0.16 0.05 0.00 0.01 0.02 0.01 0.01 0.04 0.03 0.01
0.64 2.06 1.04 0.54 0.09 0.02 0.00 0.02 0.00 0.01 0.01 0.01 0.00 0.00 0.00 0.00 0.00 0.01 0.01 0.00 0.09 0.04 0.04 0.01 0.00 0.00 0.03 0.11 0.14 0.15 0.14 0.22 0.29 0.22 0.22 0.18 0.14 0.25 0.08 0.12 0.12 0.12 0.13 0.14 0.13 0.14 0.12 0.30 0.15
0.47 2.25 1.07 0.33 0.27 0.06 0.05 0.02 0.00 0.01 0.01 0.00 0.00 0.00 0.00 0.00 0.00 0.01 0.02 0.01 0.02 0.01 0.01 0.00 0.00 0.01 0.12 0.11 0.00 0.00 0.02 0.05 0.17 0.30 0.19 0.07 0.08 0.02 0.04 0.11 0.18 0.17 0.17 0.24 0.08 0.07 0.05 0.14 0.06
0.30 0.46 0.94 0.88 0.59 0.06 0.09 0.02 0.00 0.01 0.01 0.00 0.00 0.00 0.00 0.00 0.00 0.01 0.00 0.00 0.00 0.00 0.00 0.00 0.00 0.03 0.03 0.02 0.06 0.02 0.02 0.02 0.19 0.22 0.07 0.06 0.00 0.08 0.15 0.08 0.51 0.46 0.32 0.58 0.07 0.03 0.00 0.00 0.00
0.26 0.42 0.67 0.94 0.28 0.16 0.14 0.05 0.02 0.02 0.01 0.00 0.00 0.00 0.00 0.00 0.01 0.01 0.00 0.00 0.00 0.00 0.00 0.00 0.00 0.02 0.01 0.04 0.02 0.12 0.06 0.00 0.03 0.06 0.09 0.09 0.04 0.14 0.13 0.08 0.42 0.29 0.12 0.13 0.03 0.01 0.01 0.00 0.00
0.14 0.31 0.58 1.11 0.83 0.42 0.17 0.12 0.06 0.04 0.04 0.00 0.00 0.00 0.00 0.00 0.00 0.00 0.01 0.00 0.00 0.00 0.00 0.00 0.00 0.00 0.00 0.04 0.08 0.06 0.02 0.01 0.02 0.11 0.13 0.10 0.05 0.05 0.07 0.13 0.08 0.14 0.08 0.01 0.01 0.10 0.07 0.00 0.00
0.26 0.44 0.85 1.14 1.41 1.13 0.55 0.34 0.18 0.04 0.10 0.00 0.00 0.00 0.00 0.00 0.00 0.00 0.00 0.00 0.00 0.00 0.00 0.00 0.00 0.00 0.00 0.02 0.05 0.02 0.01 0.01 0.02 0.04 0.10 0.21 0.04 0.09 0.24 0.12 0.07 0.08 0.08 0.04 0.02 0.01 0.00 0.00 0.00
0.38 0.52 0.88 1.06 1.48 1.65 0.79 0.63 0.27 0.09 0.09 0.00 0.00 0.00 0.00 0.00 0.00 0.00 0.00 0.00 0.00 0.00 0.00 0.00 0.00 0.00 0.00 0.01 0.01 0.01 0.00 0.05 0.00 0.01 0.02 0.03 0.03 0.07 0.10 0.06 0.12 0.25 0.68 0.11 0.05 0.02 0.00 0.00 0.01
0.61 0.66 0.88 2.24 2.38 2.36 1.54 1.38 0.50 0.41 0.18 0.03 0.00 0.00 0.00 0.00 0.00 0.00 0.00 0.00 0.00 0.00 0.00 0.00 0.00 0.00 0.00 0.01 0.02 0.03 0.03 0.04 0.00 0.01 0.03 0.00 0.02 0.09 0.04 0.04 0.08 0.16 0.09 0.09 0.02 0.05 0.00 0.00 0.00
0.38 0.70 0.81 1.45 2.82 2.37 1.96 1.53 0.64 0.54 0.29 0.06 0.00 0.00 0.00 0.00 0.00 0.00 0.00 0.00 0.00 0.00 0.00 0.00 0.00 0.00 0.04 0.07 0.07 0.09 0.06 0.04 0.00 0.03 0.05 0.04 0.04 0.05 0.08 0.06 0.06 0.08 0.07 0.04 0.01 0.00 0.00 0.00 0.00
0.39 0.70 1.22 1.34 2.10 2.80 2.42 1.59 1.19 0.60 0.37 0.07 0.00 0.00 0.00 0.00 0.00 0.00 0.00 0.00 0.00 0.00 0.00 0.00 0.01 0.04 0.10 0.06 0.02 0.03 0.02 0.01 0.02 0.07 0.08 0.10 0.07 0.06 0.08 0.06 0.05 0.41 0.07 0.00 0.00 0.00 0.00 0.00 0.00
0.11 0.37 1.37 1.53 1.74 1.56 2.08 1.58 1.50 1.50 0.65 0.10 0.01 0.01 0.00 0.00 0.00 0.00 0.00 0.00 0.00 0.00 0.00 0.00 0.03 0.06 0.06 0.05 0.07 0.08 0.03 0.03 0.04 0.09 0.09 0.06 0.10 0.07 0.05 0.07 0.06 0.11 0.04 0.01 0.01 0.00 0.01 0.00 0.00
0.13 0.14 0.88 1.88 1.64 1.59 1.26 1.81 1.30 1.23 1.30 0.33 0.04 0.01 0.02 0.00 0.00 0.00 0.00 0.00 0.00 0.00 0.00 0.00 0.02 0.09 0.04 0.09 0.10 0.29 0.21 0.25 0.21 0.12 0.10 0.05 0.06 0.09 0.05 0.11 0.30 0.10 0.11 0.04 0.03 0.03 0.01 0.01 0.00
0.16 0.16 0.40 1.15 1.38 1.36 1.20 1.22 1.28 0.92 1.06 0.60 0.11 0.01 0.01 0.02 0.00 0.00 0.00 0.00 0.00 0.00 0.00 0.00 0.01 0.10 0.07 0.07 0.09 0.20 0.41 0.47 0.31 0.22 0.35 0.18 0.03 0.05 0.03 0.03 0.07 0.10 0.35 0.26 0.03 0.06 0.03 0.01 0.00
0.04 0.06 0.22 0.62 0.94 0.90 0.76 0.73 0.68 0.84 0.62 0.54 0.11 0.04 0.02 0.02 0.01 0.02 0.00 0.00 0.00 0.00 0.00 0.00 0.00 0.03 0.03 0.04 0.20 0.16 0.13 0.18 0.20 0.22 0.45 0.23 0.07 0.01 0.01 0.00 0.01 0.05 0.14 0.10 0.09 0.05 0.06 0.02 0.02
0.02 0.05 0.05 0.25 0.90 0.56 0.25 0.34 0.33 0.40 0.33 0.32 0.14 0.20 0.04 0.03 0.02 0.03 0.00 0.00 0.00 0.00 0.00 0.00 0.00 0.00 0.01 0.01 0.05 0.16 0.27 0.28 0.52 0.73 0.41 0.15 0.14 0.03 0.02 0.01 0.01 0.03 0.22 0.21 0.04 0.04 0.03 0.03 0.04
0.01 0.02 0.13 0.19 0.46 0.43 0.12 0.15 0.28 0.03 0.10 0.15 0.09 0.15 0.09 0.05 0.03 0.03 0.02 0.02 0.00 0.00 0.00 0.00 0.00 0.00 0.00 0.00 0.00 0.01 0.15 0.28 0.36 0.39 0.28 0.22 0.34 0.48 0.17 0.16 0.10 0.03 0.03 0.05 0.05 0.09 0.06 0.01 0.03
0.01 0.01 0.02 0.05 0.11 0.21 0.19 0.35 0.14 0.01 0.00 0.03 0.03 0.05 0.26 0.11 0.06 0.05 0.04 0.08 0.11 0.02 0.01 0.06 0.02 0.02 0.00 0.02 0.02 0.01 0.04 0.06 0.19 0.20 0.46 0.41 0.46 0.65 0.26 0.25 0.12 0.06 0.04 0.02 0.01 0.01 0.01 0.03 0.02
0.02 0.01 0.03 0.02 0.04 0.08 0.27 0.45 0.13 0.03 0.00 0.00 0.02 0.02 0.10 0.08 0.15 0.08 0.04 0.19 0.52 0.28 0.23 0.07 0.08 0.07 0.06 0.03 0.03 0.10 0.13 0.06 0.10 0.32 0.33 0.39 0.48 0.63 0.68 0.23 0.12 0.09 0.03 0.01 0.01 0.01 0.01 0.10 0.18
0.00 0.03 0.02 0.02 0.03 0.06 0.19 0.70 0.30 0.01 0.00 0.00 0.01 0.02 0.00 0.04 0.11 0.13 0.11 0.15 0.38 0.74 0.86 0.53 0.15 0.10 0.15 0.05 0.10 0.21 0.14 0.11 0.13 0.13 0.23 0.42 0.52 1.49 1.12 0.26 0.15 0.08 0.04 0.09 0.08 0.02 0.01 0.03 0.06
0.00 0.01 0.02 0.01 0.01 0.01 0.06 0.15 0.06 0.02 0.00 0.00 0.00 0.01 0.00 0.00 0.07 0.16 0.15 0.22 0.20 0.62 0.47 0.97 0.28 0.11 0.09 0.21 0.34 0.51 0.25 0.12 0.10 0.12 0.20 0.19 0.24 0.42 0.29 0.33 0.23 0.27 0.20 0.13 0.16 0.12 0.07 0.06 0.04
0.00 0.00 0.00 0.00 0.00 0.00 0.00 0.08 0.16 0.15 0.02 0.01 0.02 0.05 0.06 0.06 0.10 0.17 0.17 0.40 0.25 0.21 0.24 0.28 0.34 0.53 0.55 0.70 1.03 0.72 0.74 0.59 0.28 0.19 0.19 0.17 0.14 0.15 0.25 0.21 0.33 0.41 0.24 0.25 0.23 0.11 0.11 0.13 0.09